| time (UTC) | temp C | wind direction | speed KPH | gust KPH | rain 1hr cm | rain 24hr cm | rain mn cm | humidity % | barometer mb |
| 20260504110405 | 13 | 215 | 0.0 | 0.0 | 0.00 | 0.00 | 0.00 | 66 | 1012.6 |
| 20260504100209 | 13 | 212 | 0.0 | 6.4 | 0.00 | 0.00 | 0.00 | 64 | 1012.9 |
| 20260504081846 | 13 | 192 | 0.0 | 4.8 | 0.00 | 0.00 | 0.00 | 62 | 1013.9 |
| 20260504081335 | 13 | 197 | 0.0 | 1.6 | 0.00 | 0.00 | 0.00 | 63 | 1013.9 |
| 20260504080822 | 13 | 196 | 0.0 | 1.6 | 0.00 | 0.00 | 0.00 | 63 | 1013.9 |
| 20260504080310 | 14 | 196 | 0.0 | 6.4 | 0.00 | 0.00 | 0.00 | 62 | 1013.9 |
| 20260504070131 | 15 | 224 | 9.7 | 17.7 | 0.00 | 0.00 | 0.00 | 60 | 1015.0 |
| 20260504050731 | 14 | 197 | 0.0 | 0.0 | 0.00 | 0.00 | 0.00 | 59 | 1015.0 |
| 20260504050228 | 14 | 195 | 0.0 | 0.0 | 0.00 | 0.00 | 0.00 | 59 | 1015.6 |
| 20260504045725 | 14 | 192 | 0.0 | 0.0 | 0.00 | 0.00 | 0.00 | 58 | 1015.3 |
| 20260504045208 | 15 | 188 | 0.0 | 0.0 | 0.00 | 0.00 | 0.00 | 57 | 1015.3 |
| 20260504044709 | 15 | 153 | 0.0 | 3.2 | 0.00 | 0.00 | 0.00 | 57 | 1015.3 |
| 20260504044427 | 15 | 149 | 0.0 | 3.2 | 0.00 | 0.00 | 0.00 | 56 | 1015.3 |
| 20260504043708 | 15 | 152 | 0.0 | 0.0 | 0.00 | 0.00 | 0.00 | 55 | 1015.3 |
| 20260504043210 | 15 | 152 | 0.0 | 0.0 | 0.00 | 0.00 | 0.00 | 54 | 1015.3 |
| 20260504042708 | 15 | 147 | 0.0 | 0.0 | 0.00 | 0.00 | 0.00 | 54 | 1015.3 |
| 20260504042206 | 15 | 159 | 0.0 | 1.6 | 0.00 | 0.00 | 0.00 | 53 | 1015.3 |
| 20260504041657 | 16 | 160 | 0.0 | 1.6 | 0.00 | 0.00 | 0.00 | 52 | 1015.3 |
| 20260504041623 | 16 | 147 | 0.0 | 1.6 | 0.00 | 0.00 | 0.00 | 51 | 1015.3 |
| 20260504040632 | 16 | 144 | 0.0 | 11.3 | 0.00 | 0.00 | 0.00 | 50 | 1015.3 |
| 20260504040110 | 16 | 139 | 0.0 | 11.3 | 0.00 | 0.00 | 0.00 | 50 | 1015.3 |
| 20260504035607 | 16 | 148 | 0.0 | 1.6 | 0.00 | 0.00 | 0.00 | 49 | 1015.6 |
| 20260504035108 | 16 | 162 | 0.0 | 0.0 | 0.00 | 0.00 | 0.00 | 49 | 1015.3 |
| 20260504034608 | 16 | 154 | 0.0 | 0.0 | 0.00 | 0.00 | 0.00 | 48 | 1015.6 |
| 20260504034107 | 16 | 162 | 0.0 | 0.0 | 0.00 | 0.00 | 0.00 | 48 | 1015.6 |
| 20260504033607 | 16 | 145 | 0.0 | 3.2 | 0.00 | 0.00 | 0.00 | 47 | 1015.6 |
| 20260504033107 | 16 | 164 | 0.0 | 3.2 | 0.00 | 0.00 | 0.00 | 47 | 1015.6 |
| 20260504032602 | 17 | 162 | 0.0 | 0.0 | 0.00 | 0.00 | 0.00 | 46 | 1015.3 |
| 20260504032048 | 17 | 185 | 0.0 | 1.6 | 0.00 | 0.00 | 0.00 | 45 | 1015.3 |
| 20260504031537 | 17 | 145 | 0.0 | 1.6 | 0.00 | 0.00 | 0.00 | 44 | 1015.3 |
| 20260504031025 | 17 | 149 | 0.0 | 4.8 | 0.00 | 0.00 | 0.00 | 44 | 1015.3 |
| 20260504030508 | 17 | 146 | 0.0 | 4.8 | 0.00 | 0.00 | 0.00 | 43 | 1015.3 |
| 20260504030000 | 18 | 139 | 0.0 | 4.8 | 0.00 | 0.00 | 0.00 | 42 | 1015.3 |
| 20260504025448 | 18 | 171 | 0.0 | 4.8 | 0.00 | 0.00 | 0.00 | 42 | 1015.0 |
| 20260504024937 | 18 | 200 | 0.0 | 0.0 | 0.00 | 0.00 | 0.00 | 42 | 1015.0 |
| 20260504024424 | 18 | 144 | 0.0 | 6.4 | 0.00 | 0.00 | 0.00 | 42 | 1015.0 |
| 20260504023909 | 18 | 187 | 0.0 | 6.4 | 0.00 | 0.00 | 0.00 | 41 | 1015.0 |
| 20260504023405 | 18 | 184 | 0.0 | 9.7 | 0.00 | 0.00 | 0.00 | 40 | 1015.3 |
| 20260504023155 | 18 | 211 | 0.0 | 9.7 | 0.00 | 0.00 | 0.00 | 40 | 1015.0 |
| 20260504023053 | 18 | 166 | 0.0 | 9.7 | 0.00 | 0.00 | 0.00 | 39 | 1015.0 |
| 20260504022055 | 18 | 178 | 0.0 | 12.9 | 0.00 | 0.00 | 0.00 | 39 | 1015.3 |
| 20260504021323 | 19 | 202 | 0.0 | 12.9 | 0.00 | 0.00 | 0.00 | 39 | 1015.0 |
| 20260504020809 | 19 | 158 | 0.0 | 12.9 | 0.00 | 0.00 | 0.00 | 37 | 1015.0 |
| 20260504020309 | 19 | 232 | 6.4 | 12.9 | 0.00 | 0.00 | 0.00 | 37 | 1014.6 |
| 20260504015805 | 20 | 207 | 1.6 | 9.7 | 0.00 | 0.00 | 0.00 | 35 | 1014.6 |
| 20260504015519 | 20 | 219 | 0.0 | 9.7 | 0.00 | 0.00 | 0.00 | 35 | 1014.6 |
| 20260504014744 | 20 | 195 | 0.0 | 11.3 | 0.00 | 0.00 | 0.00 | 35 | 1014.6 |
| 20260504014234 | 20 | 178 | 0.0 | 11.3 | 0.00 | 0.00 | 0.00 | 34 | 1014.3 |
| 20260504013723 | 20 | 189 | 3.2 | 9.7 | 0.00 | 0.00 | 0.00 | 33 | 1014.6 |
| 20260504013208 | 20 | 206 | 1.6 | 6.4 | 0.00 | 0.00 | 0.00 | 33 | 1014.6 |
| 20260504012703 | 21 | 222 | 3.2 | 9.7 | 0.00 | 0.00 | 0.00 | 32 | 1014.3 |
| 20260504012149 | 21 | 201 | 0.0 | 14.5 | 0.00 | 0.00 | 0.00 | 31 | 1015.0 |
| 20260504011639 | 21 | 223 | 0.0 | 14.5 | 0.00 | 0.00 | 0.00 | 31 | 1014.6 |
| 20260504011348 | 21 | 226 | 0.0 | 14.5 | 0.00 | 0.00 | 0.00 | 30 | 1015.0 |
| 20260504010832 | 21 | 198 | 6.4 | 14.5 | 0.00 | 0.00 | 0.00 | 30 | 1015.0 |
| 20260504010108 | 21 | 244 | 4.8 | 14.5 | 0.00 | 0.00 | 0.00 | 30 | 1015.0 |
| 20260504005556 | 21 | 212 | 1.6 | 14.5 | 0.00 | 0.00 | 0.00 | 30 | 1015.0 |
| 20260504005042 | 21 | 198 | 0.0 | 14.5 | 0.00 | 0.00 | 0.00 | 30 | 1015.0 |
| 20260504004531 | 21 | 192 | 1.6 | 17.7 | 0.00 | 0.00 | 0.00 | 30 | 1015.0 |
| 20260504004018 | 21 | 204 | 0.0 | 17.7 | 0.00 | 0.00 | 0.00 | 29 | 1015.0 |
| 20260504003507 | 21 | 131 | 0.0 | 17.7 | 0.00 | 0.00 | 0.00 | 30 | 1015.3 |
| 20260504003009 | 21 | 200 | 3.2 | 17.7 | 0.00 | 0.00 | 0.00 | 30 | 1015.0 |
| 20260504002948 | 22 | 219 | 6.4 | 17.7 | 0.00 | 0.00 | 0.00 | 29 | 1015.3 |
| 20260504002002 | 22 | 194 | 4.8 | 17.7 | 0.00 | 0.00 | 0.00 | 28 | 1015.3 |
| 20260504001449 | 22 | 223 | 3.2 | 17.7 | 0.00 | 0.00 | 0.00 | 28 | 1015.3 |
| 20260504001200 | 22 | 208 | 0.0 | 17.7 | 0.00 | 0.00 | 0.00 | 28 | 1015.6 |
| 20260504000906 | 22 | 202 | 0.0 | 16.1 | 0.00 | 0.00 | 0.00 | 28 | 1015.0 |
| 20260503235909 | 22 | 223 | 3.2 | 16.1 | 0.00 | 0.00 | 0.00 | 28 | 1015.3 |
| 20260503235358 | 22 | 208 | 0.0 | 16.1 | 0.00 | 0.00 | 0.00 | 27 | 1015.3 |
| 20260503234845 | 22 | 178 | 9.7 | 12.9 | 0.00 | 0.00 | 0.00 | 27 | 1015.3 |
| 20260503234345 | 22 | 191 | 0.0 | 9.7 | 0.00 | 0.00 | 0.00 | 28 | 1015.6 |
| 20260503233840 | 22 | 215 | 0.0 | 24.1 | 0.00 | 0.00 | 0.00 | 28 | 1015.6 |
| 20260503233600 | 22 | 192 | 0.0 | 24.1 | 0.00 | 0.00 | 0.00 | 28 | 1015.6 |
| 20260503232825 | 22 | 198 | 0.0 | 22.5 | 0.00 | 0.00 | 0.00 | 28 | 1015.6 |
| 20260503232309 | 22 | 201 | 4.8 | 22.5 | 0.00 | 0.00 | 0.00 | 27 | 1015.6 |
| 20260503231756 | 22 | 181 | 0.0 | 22.5 | 0.00 | 0.00 | 0.00 | 29 | 1015.6 |
| 20260503231256 | 22 | 227 | 0.0 | 14.5 | 0.00 | 0.00 | 0.00 | 28 | 1015.6 |
| 20260503230741 | 22 | 208 | 0.0 | 24.1 | 0.00 | 0.00 | 0.00 | 26 | 1015.6 |
| 20260503230236 | 22 | 226 | 3.2 | 24.1 | 0.00 | 0.00 | 0.00 | 27 | 1015.6 |
| 20260503225734 | 22 | 198 | 0.0 | 20.9 | 0.00 | 0.00 | 0.00 | 27 | 1015.6 |
| 20260503225435 | 22 | 214 | 3.2 | 25.7 | 0.00 | 0.00 | 0.00 | 27 | 1016.0 |
| 20260503224927 | 22 | 198 | 4.8 | 25.7 | 0.00 | 0.00 | 0.00 | 28 | 1016.0 |
| 20260503224150 | 22 | 193 | 6.4 | 20.9 | 0.00 | 0.00 | 0.00 | 28 | 1016.0 |
| 20260503223637 | 22 | 196 | 6.4 | 22.5 | 0.00 | 0.00 | 0.00 | 28 | 1016.0 |
| 20260503223137 | 22 | 228 | 0.0 | 25.7 | 0.00 | 0.00 | 0.00 | 28 | 1016.3 |
| 20260503222635 | 22 | 231 | 16.1 | 25.7 | 0.00 | 0.00 | 0.00 | 28 | 1016.0 |
| 20260503222134 | 23 | 197 | 14.5 | 25.7 | 0.00 | 0.00 | 0.00 | 27 | 1016.0 |
| 20260503221839 | 22 | 152 | 0.0 | 25.7 | 0.00 | 0.00 | 0.00 | 29 | 1016.3 |
| 20260503221108 | 22 | 138 | 14.5 | 22.5 | 0.00 | 0.00 | 0.00 | 29 | 1016.3 |
| 20260503220555 | 23 | 220 | 6.4 | 24.1 | 0.00 | 0.00 | 0.00 | 28 | 1016.3 |
| 20260503220041 | 23 | 227 | 12.9 | 24.1 | 0.00 | 0.00 | 0.00 | 29 | 1016.7 |
| 20260503215529 | 23 | 237 | 8.0 | 14.5 | 0.00 | 0.00 | 0.00 | 29 | 1016.3 |
| 20260503215009 | 23 | 220 | 0.0 | 16.1 | 0.00 | 0.00 | 0.00 | 29 | 1016.7 |
| 20260503214707 | 23 | 199 | 0.0 | 20.9 | 0.00 | 0.00 | 0.00 | 28 | 1016.7 |
| 20260503214554 | 23 | 243 | 1.6 | 20.9 | 0.00 | 0.00 | 0.00 | 29 | 1017.0 |
| 20260503213503 | 23 | 217 | 6.4 | 17.7 | 0.00 | 0.00 | 0.00 | 27 | 1017.0 |
| 20260503213002 | 23 | 212 | 0.0 | 17.7 | 0.00 | 0.00 | 0.00 | 28 | 1016.7 |
| 20260503212446 | 22 | 198 | 1.6 | 22.5 | 0.00 | 0.00 | 0.00 | 29 | 1017.0 |
| 20260503211933 | 22 | 213 | 4.8 | 22.5 | 0.00 | 0.00 | 0.00 | 29 | 1017.3 |
| 20260503211433 | 22 | 254 | 0.0 | 22.5 | 0.00 | 0.00 | 0.00 | 30 | 1017.3 |
| 20260503210919 | 22 | 210 | 14.5 | 22.5 | 0.00 | 0.00 | 0.00 | 30 | 1017.3 |
| 20260503210408 | 22 | 211 | 1.6 | 24.1 | 0.00 | 0.00 | 0.00 | 29 | 1017.3 |
| 20260503205908 | 22 | 191 | 9.7 | 24.1 | 0.00 | 0.00 | 0.00 | 28 | 1017.3 |
| 20260503205407 | 23 | 235 | 11.3 | 20.9 | 0.00 | 0.00 | 0.00 | 27 | 1017.7 |
| 20260503204907 | 23 | 203 | 1.6 | 17.7 | 0.00 | 0.00 | 0.00 | 26 | 1017.3 |
| 20260503204402 | 23 | 220 | 1.6 | 17.7 | 0.00 | 0.00 | 0.00 | 27 | 1017.3 |
| 20260503203837 | 23 | 217 | 6.4 | 14.5 | 0.00 | 0.00 | 0.00 | 26 | 1018.0 |
| 20260503203325 | 23 | 207 | 4.8 | 17.7 | 0.00 | 0.00 | 0.00 | 27 | 1018.0 |
| 20260503202817 | 23 | 220 | 3.2 | 17.7 | 0.00 | 0.00 | 0.00 | 25 | 1018.3 |
| 20260503202307 | 23 | 225 | 12.9 | 24.1 | 0.00 | 0.00 | 0.00 | 26 | 1018.0 |
| 20260503201809 | 23 | 175 | 6.4 | 24.1 | 0.00 | 0.00 | 0.00 | 26 | 1018.3 |
| 20260503201301 | 23 | 201 | 0.0 | 24.1 | 0.00 | 0.00 | 0.00 | 26 | 1018.3 |
| 20260503200751 | 23 | 181 | 4.8 | 24.1 | 0.00 | 0.00 | 0.00 | 25 | 1018.3 |
| 20260503200240 | 23 | 218 | 4.8 | 24.1 | 0.00 | 0.00 | 0.00 | 25 | 1018.7 |
| 20260503195951 | 22 | 188 | 1.6 | 24.1 | 0.00 | 0.00 | 0.00 | 26 | 1019.0 |
| 20260503195219 | 22 | 197 | 3.2 | 17.7 | 0.00 | 0.00 | 0.00 | 28 | 1018.7 |
| 20260503194708 | 22 | 164 | 3.2 | 20.9 | 0.00 | 0.00 | 0.00 | 28 | 1018.7 |
| 20260503194208 | 22 | 215 | 9.7 | 20.9 | 0.00 | 0.00 | 0.00 | 28 | 1018.7 |
| 20260503193706 | 22 | 156 | 6.4 | 17.7 | 0.00 | 0.00 | 0.00 | 28 | 1018.7 |
| 20260503193157 | 22 | 206 | 9.7 | 25.7 | 0.00 | 0.00 | 0.00 | 26 | 1018.7 |
| 20260503192645 | 22 | 178 | 11.3 | 25.7 | 0.00 | 0.00 | 0.00 | 27 | 1019.0 |
| 20260503192356 | 22 | 124 | 1.6 | 20.9 | 0.00 | 0.00 | 0.00 | 27 | 1019.0 |
| 20260503191625 | 22 | 190 | 0.0 | 20.9 | 0.00 | 0.00 | 0.00 | 27 | 1019.0 |
| 20260503191325 | 22 | 223 | 0.0 | 12.9 | 0.00 | 0.00 | 0.00 | 29 | 1019.4 |
| 20260503190608 | 22 | 217 | 3.2 | 17.7 | 0.00 | 0.00 | 0.00 | 29 | 1019.4 |
| 20260503190108 | 22 | 209 | 0.0 | 22.5 | 0.00 | 0.00 | 0.00 | 27 | 1019.4 |
| 20260503185557 | 21 | 220 | 1.6 | 20.9 | 0.00 | 0.00 | 0.00 | 29 | 1019.4 |
| 20260503185045 | 21 | 229 | 6.4 | 17.7 | 0.00 | 0.00 | 0.00 | 29 | 1019.4 |
| 20260503184535 | 21 | 209 | 3.2 | 11.3 | 0.00 | 0.00 | 0.00 | 30 | 1019.7 |
| 20260503184024 | 21 | 184 | 0.0 | 20.9 | 0.00 | 0.00 | 0.00 | 33 | 1020.0 |
| 20260503183725 | 20 | 208 | 1.6 | 20.9 | 0.00 | 0.00 | 0.00 | 33 | 1019.7 |
| 20260503183008 | 21 | 204 | 4.8 | 17.7 | 0.00 | 0.00 | 0.00 | 33 | 1020.0 |
| 20260503182508 | 21 | 194 | 1.6 | 17.7 | 0.00 | 0.00 | 0.00 | 34 | 1019.7 |
| 20260503182008 | 20 | 203 | 1.6 | 17.7 | 0.00 | 0.00 | 0.00 | 34 | 1020.0 |
| 20260503181733 | 20 | 149 | 3.2 | 20.9 | 0.00 | 0.00 | 0.00 | 34 | 1020.0 |
| 20260503181008 | 20 | 180 | 0.0 | 20.9 | 0.00 | 0.00 | 0.00 | 35 | 1020.0 |
| 20260503180505 | 20 | 145 | 0.0 | 12.9 | 0.00 | 0.00 | 0.00 | 36 | 1020.0 |
| 20260503175955 | 20 | 141 | 1.6 | 20.9 | 0.00 | 0.00 | 0.00 | 37 | 1020.4 |
| 20260503175444 | 20 | 213 | 6.4 | 20.9 | 0.00 | 0.00 | 0.00 | 36 | 1020.4 |
| 20260503174934 | 20 | 211 | 8.0 | 17.7 | 0.00 | 0.00 | 0.00 | 37 | 1020.7 |
| 20260503174423 | 20 | 236 | 0.0 | 17.7 | 0.00 | 0.00 | 0.00 | 37 | 1020.4 |
| 20260503173909 | 20 | 202 | 1.6 | 17.7 | 0.00 | 0.00 | 0.00 | 38 | 1020.7 |
| 20260503173621 | 20 | 200 | 1.6 | 20.9 | 0.00 | 0.00 | 0.00 | 38 | 1020.7 |
| 20260503172850 | 20 | 188 | 0.0 | 20.9 | 0.00 | 0.00 | 0.00 | 39 | 1020.7 |
| 20260503172348 | 19 | 220 | 3.2 | 22.5 | 0.00 | 0.00 | 0.00 | 39 | 1020.7 |
| 20260503171843 | 19 | 181 | 1.6 | 22.5 | 0.00 | 0.00 | 0.00 | 39 | 1020.7 |
| 20260503171333 | 19 | 214 | 6.4 | 16.1 | 0.00 | 0.00 | 0.00 | 40 | 1021.1 |
| 20260503170822 | 20 | 209 | 1.6 | 17.7 | 0.00 | 0.00 | 0.00 | 41 | 1020.7 |
| 20260503170321 | 19 | 197 | 3.2 | 17.7 | 0.00 | 0.00 | 0.00 | 40 | 1021.1 |
| 20260503160121 | 17 | 194 | 17.7 | 20.9 | 0.00 | 0.00 | 0.00 | 47 | 1021.7 |
| 20260503150936 | 15 | 191 | 11.3 | 24.1 | 0.00 | 0.00 | 0.00 | 55 | 1021.7 |
| 20260503150422 | 15 | 213 | 8.0 | 24.1 | 0.00 | 0.00 | 0.00 | 57 | 1021.4 |
| 20260503140208 | 12 | 213 | 0.0 | 14.5 | 0.00 | 0.00 | 0.00 | 69 | 1021.7 |
| 20260503131022 | 9 | 203 | 0.0 | 9.7 | 0.00 | 0.00 | 0.00 | 79 | 1022.1 |
| 20260503130507 | 9 | 203 | 0.0 | 9.7 | 0.00 | 0.00 | 0.00 | 80 | 1021.7 |